When you browse on this site, cookies collect data to enhance your experience and personalize the content and advertising you see.
Visit our Privacy Policy to learn more. By continuing to use the site, you agree to this use of cookies and data.
  • In Netherlands
  • List of Countries
  • For 7 days
  • Water Temperature
  • Satellite Maps
  • Weather Map
  • Weather Widgets
  • user-avatar
    Login

    Hourly Weather Kurytyba

    Today, 20 July, Saturday

    Time Temperature Precipitation Wind Pressure Humidity
    00:00 +11°C° 0 mm 0 mps 685 mmHg 95%
    01:00 +11°C° 0 mm 0 mps 685 mmHg 93%
    02:00 +11°C° 0 mm 0 mps 685 mmHg 92%
    03:00 +11°C° 0 mm 0 mps 685 mmHg 90%
    04:00 +11°C° 0 mm 0 mps 685 mmHg 91%
    05:00 +11°C° 0 mm 0 mps 685 mmHg 92%
    06:00 +11°C° 0 mm 0 mps 685 mmHg 92%
    07:00 +12°C° 0 mm 0 mps 685 mmHg 86%
    08:00 +14°C° 0 mm 0 mps 686 mmHg 79%
    09:00 +16°C° 0 mm 1 mps 687 mmHg 73%
    10:00 +19°C° 0 mm 1 mps 687 mmHg 65%
    11:00 +21°C° 0 mm 1 mps 687 mmHg 58%
    12:00 +23°C° 0 mm 1 mps 687 mmHg 51%
    13:00 +23°C° 0 mm 1 mps 687 mmHg 50%
    14:00 +23°C° 0 mm 1 mps 686 mmHg 49%
    15:00 +23°C° 0 mm 1 mps 685 mmHg 48%
    16:00 +21°C° 0 mm 1 mps 685 mmHg 58%
    17:00 +19°C° 0 mm 1 mps 684 mmHg 69%
    18:00 +16°C° 0 mm 1 mps 684 mmHg 80%
    19:00 +16°C° 0 mm 1 mps 684 mmHg 83%
    20:00 +15°C° 0 mm 1 mps 684 mmHg 85%
    21:00 +14°C° 0 mm 1 mps 685 mmHg 88%
    22:00 +14°C° 0 mm 1 mps 685 mmHg 89%
    23:00 +14°C° 0 mm 1 mps 684 mmHg 89%

    Tomorrow, 21 July, Sunday

    Time Temperature Precipitation Wind Pressure Humidity
    00:00 +13°C° 0 mm 1 mps 684 mmHg 89%
    01:00 +13°C° 0 mm 1 mps 684 mmHg 90%
    02:00 +13°C° 0 mm 1 mps 684 mmHg 90%
    03:00 +13°C° 0 mm 1 mps 684 mmHg 90%
    04:00 +12°C° 0 mm 1 mps 684 mmHg 90%
    05:00 +12°C° 0 mm 1 mps 683 mmHg 90%
    06:00 +12°C° 0 mm 1 mps 683 mmHg 90%
    07:00 +13°C° 0 mm 1 mps 684 mmHg 83%
    08:00 +15°C° 0 mm 1 mps 685 mmHg 76%
    09:00 +16°C° 0 mm 2 mps 685 mmHg 69%
    10:00 +18°C° 0 mm 2 mps 685 mmHg 63%
    11:00 +19°C° 0 mm 2 mps 685 mmHg 56%
    12:00 +21°C° 0 mm 2 mps 686 mmHg 50%
    13:00 +21°C° 0 mm 2 mps 685 mmHg 50%
    14:00 +21°C° 0 mm 2 mps 684 mmHg 50%
    15:00 +23°C° 0 mm 2 mps 684 mmHg 50%
    16:00 +20°C° 0 mm 2 mps 684 mmHg 58%
    17:00 +18°C° 0 mm 2 mps 683 mmHg 66%
    18:00 +18°C° 0 mm 1 mps 683 mmHg 74%
    19:00 +16°C° 0 mm 1 mps 683 mmHg 76%
    20:00 +16°C° 0 mm 1 mps 683 mmHg 78%
    21:00 +15°C° 0 mm 1 mps 684 mmHg 80%
    22:00 +15°C° 0 mm 1 mps 684 mmHg 80%
    23:00 +15°C° 0 mm 2 mps 684 mmHg 80%

    Day after tomorrow, 22 July, Monday

    Time Temperature Precipitation Wind Pressure Humidity
    00:00 +15°C° 0 mm 2 mps 684 mmHg 80%
    01:00 +15°C° 0 mm 2 mps 683 mmHg 81%
    02:00 +15°C° 0 mm 2 mps 683 mmHg 82%
    03:00 +15°C° 0 mm 2 mps 682 mmHg 82%
    04:00 +14°C° 0 mm 2 mps 682 mmHg 83%
    05:00 +14°C° 0 mm 2 mps 682 mmHg 84%
    06:00 +14°C° 0 mm 2 mps 682 mmHg 85%
    07:00 +15°C° 0 mm 2 mps 683 mmHg 79%
    08:00 +16°C° 0 mm 3 mps 684 mmHg 73%
    09:00 +18°C° 0 mm 3 mps 684 mmHg 66%
    10:00 +19°C° 0 mm 3 mps 685 mmHg 61%
    11:00 +20°C° 0 mm 3 mps 685 mmHg 56%
    12:00 +22°C° 0 mm 3 mps 685 mmHg 52%
    13:00 +22°C° 0 mm 3 mps 685 mmHg 50%
    14:00 +24°C° 0 mm 2 mps 684 mmHg 49%
    15:00 +24°C° 0 mm 2 mps 684 mmHg 48%
    16:00 +23°C° 0 mm 2 mps 684 mmHg 56%
    17:00 +21°C° 0 mm 1 mps 683 mmHg 64%
    18:00 +19°C° 0 mm 1 mps 683 mmHg 73%
    19:00 +18°C° 0 mm 1 mps 683 mmHg 76%
    20:00 +18°C° 0 mm 1 mps 683 mmHg 80%
    21:00 +16°C° 0 mm 1 mps 684 mmHg 83%
    22:00 +15°C° 0 mm 1 mps 684 mmHg 85%
    23:00 +15°C° 0 mm 1 mps 683 mmHg 86%

    23 July, Tuesday

    Time Temperature Precipitation Wind Pressure Humidity
    00:00 +15°C° 0 mm 1 mps 683 mmHg 88%
    01:00 +15°C° 0 mm 1 mps 683 mmHg 89%
    02:00 +14°C° 0 mm 1 mps 683 mmHg 89%
    03:00 +14°C° 0 mm 1 mps 683 mmHg 90%
    04:00 +14°C° 0 mm 1 mps 683 mmHg 90%
    05:00 +14°C° 0 mm 1 mps 683 mmHg 90%
    06:00 +14°C° 0 mm 1 mps 683 mmHg 90%
    07:00 +15°C° 0 mm 2 mps 683 mmHg 83%
    08:00 +17°C° 0 mm 2 mps 684 mmHg 76%
    09:00 +18°C° 0 mm 2 mps 684 mmHg 69%
    10:00 +20°C° 0 mm 2 mps 685 mmHg 63%
    11:00 +21°C° 0 mm 3 mps 685 mmHg 57%
    12:00 +24°C° 0 mm 3 mps 685 mmHg 51%
    13:00 +24°C° 0 mm 3 mps 684 mmHg 49%
    14:00 +25°C° 0 mm 2 mps 684 mmHg 48%
    15:00 +25°C° 0 mm 2 mps 683 mmHg 47%
    16:00 +23°C° 0 mm 2 mps 683 mmHg 55%
    17:00 +21°C° 0 mm 2 mps 683 mmHg 62%
    18:00 +20°C° 0 mm 1 mps 682 mmHg 70%
    19:00 +19°C° 0 mm 1 mps 683 mmHg 74%
    20:00 +18°C° 0 mm 1 mps 683 mmHg 78%
    21:00 +16°C° 0 mm 1 mps 683 mmHg 81%
    22:00 +16°C° 0 mm 1 mps 683 mmHg 82%
    23:00 +15°C° 0 mm 1 mps 683 mmHg 82%

    24 July, Wednesday

    Time Temperature Precipitation Wind Pressure Humidity
    00:00 +15°C° 0 mm 1 mps 684 mmHg 82%
    01:00 +15°C° 0 mm 1 mps 683 mmHg 83%
    02:00 +15°C° 0 mm 1 mps 683 mmHg 84%
    03:00 +15°C° 0 mm 1 mps 683 mmHg 85%
    04:00 +14°C° 0 mm 1 mps 683 mmHg 85%
    05:00 +14°C° 0 mm 1 mps 683 mmHg 85%
    06:00 +14°C° 0 mm 1 mps 683 mmHg 86%
    07:00 +15°C° 0 mm 1 mps 683 mmHg 80%
    08:00 +18°C° 0 mm 1 mps 684 mmHg 74%
    09:00 +19°C° 0 mm 1 mps 684 mmHg 68%
    10:00 +21°C° 0 mm 1 mps 685 mmHg 60%
    11:00 +23°C° 0 mm 1 mps 685 mmHg 52%
    12:00 +24°C° 0 mm 0 mps 685 mmHg 43%
    13:00 +26°C° 0 mm 1 mps 685 mmHg 45%
    14:00 +26°C° 0 mm 1 mps 685 mmHg 46%
    15:00 +25°C° 0 mm 1 mps 684 mmHg 47%
    16:00 +23°C° 0 mm 1 mps 684 mmHg 59%
    17:00 +20°C° 0 mm 2 mps 684 mmHg 71%
    18:00 +18°C° 0 mm 2 mps 684 mmHg 83%
    19:00 +17°C° 0 mm 2 mps 684 mmHg 85%
    20:00 +16°C° 0 mm 2 mps 685 mmHg 88%
    21:00 +15°C° 0 mm 2 mps 685 mmHg 91%
    22:00 +15°C° 0 mm 2 mps 685 mmHg 91%
    23:00 +15°C° 0 mm 2 mps 685 mmHg 91%

    25 July, Thursday

    Time Temperature Precipitation Wind Pressure Humidity
    00:00 +15°C° 0 mm 2 mps 685 mmHg 91%
    01:00 +15°C° 0 mm 2 mps 685 mmHg 91%
    02:00 +15°C° 0 mm 1 mps 685 mmHg 91%
    03:00 +15°C° 0 mm 1 mps 685 mmHg 91%
    04:00 +15°C° 0 mm 1 mps 685 mmHg 91%
    05:00 +15°C° 0 mm 1 mps 685 mmHg 91%
    06:00 +14°C° 0 mm 1 mps 685 mmHg 91%
    07:00 +15°C° 0 mm 1 mps 685 mmHg 88%
    08:00 +15°C° 0 mm 1 mps 685 mmHg 86%
    09:00 +15°C° 0 mm 1 mps 685 mmHg 84%
    10:00 +18°C° 0 mm 1 mps 685 mmHg 77%
    11:00 +19°C° 0 mm 1 mps 685 mmHg 71%
    12:00 +21°C° 0 mm 1 mps 686 mmHg 65%
    13:00 +21°C° 0 mm 1 mps 685 mmHg 65%
    14:00 +21°C° 0 mm 1 mps 685 mmHg 64%
    15:00 +21°C° 0 mm 2 mps 684 mmHg 64%
    16:00 +20°C° 0 mm 1 mps 684 mmHg 72%
    17:00 +19°C° 0 mm 1 mps 683 mmHg 79%
    18:00 +18°C° 0 mm 1 mps 683 mmHg 86%
    19:00 +16°C° 0 mm 1 mps 683 mmHg 89%
    20:00 +16°C° 0 mm 1 mps 683 mmHg 91%
    21:00 +15°C° 0 mm 1 mps 683 mmHg 93%
    22:00 +15°C° 0 mm 1 mps 683 mmHg 94%
    23:00 +15°C° 0 mm 1 mps 683 mmHg 94%
    Show more